SR8WXE Weather Reports


time (UTC)temp
C
wind
direction
speed
KPH
gust
KPH
rain 1hr
cm
rain 24hr
cm
rain mn
cm
humidity
%
barometer
mb
20260507015745 16 161 0.0 0.0 0.00 0.00 0.00 54 1008.8
20260507015245 16 161 0.0 3.2 0.00 0.00 0.00 54 1008.8
20260507014745 16 232 0.0 8.0 0.00 0.00 0.00 54 1008.9
20260507014244 16 201 0.0 1.6 0.00 0.00 0.00 54 1008.8
20260507013744 16 174 0.0 0.0 0.00 0.00 0.00 54 1008.9
20260507013244 16 174 0.0 1.6 0.00 0.00 0.00 54 1008.8
20260507012743 16 217 0.0 4.8 0.00 0.00 0.00 54 1008.8
20260507012243 17 229 0.0 9.7 0.00 0.00 0.00 54 1008.8
20260507011743 17 205 8.0 8.0 0.00 0.00 0.00 54 1008.7
20260507011243 16 217 3.2 14.5 0.00 0.00 0.00 53 1008.6
20260507010742 16 208 0.0 9.7 0.00 0.00 0.00 54 1008.6
20260507010242 16 177 1.6 11.3 0.00 0.00 0.00 54 1008.7
20260507005742 16 203 1.6 12.9 0.00 0.00 0.00 54 1008.6
20260507005241 16 213 8.0 11.3 0.00 0.00 0.00 55 1008.6
20260507004741 16 195 8.0 8.0 0.00 0.00 0.00 56 1008.6
20260507004241 16 196 3.2 4.8 0.00 0.00 0.00 56 1008.6
20260507003741 16 194 0.0 6.4 0.00 0.00 0.00 57 1008.7
20260507003240 15 167 0.0 4.8 0.00 0.00 0.00 58 1008.6
20260507002740 15 185 0.0 6.4 0.00 0.00 0.00 60 1008.6
20260507002240 14 171 0.0 6.4 0.00 0.00 0.00 63 1008.6
20260507001739 13 153 0.0 6.4 0.00 0.00 0.00 65 1008.5
20260507001239 13 187 0.0 0.0 0.00 0.00 0.00 65 1008.5
20260507000739 13 187 0.0 0.0 0.00 0.00 0.00 64 1008.5
20260507000239 13 187 0.0 0.0 0.00 0.00 0.00 63 1008.5
20260506235738 14 187 0.0 0.0 0.00 0.00 0.00 62 1008.4
20260506235238 14 187 0.0 0.0 0.00 0.00 0.00 61 1008.5
20260506234738 15 187 0.0 0.0 0.00 0.00 0.00 59 1008.4
20260506234238 15 187 0.0 0.0 0.00 0.00 0.00 57 1008.5
20260506233737 15 187 0.0 0.0 0.00 0.00 0.00 56 1008.5
20260506233237 16 187 0.0 0.0 0.00 0.00 0.00 55 1008.5
20260506232737 16 187 0.0 0.0 0.00 0.00 0.00 54 1008.6
20260506232236 16 187 0.0 0.0 0.00 0.00 0.00 54 1008.5
20260506231736 16 187 0.0 0.0 0.00 0.00 0.00 54 1008.5
20260506231236 16 187 0.0 1.6 0.00 0.00 0.00 53 1008.5
20260506230736 16 206 0.0 3.2 0.00 0.00 0.00 53 1008.5
20260506230235 16 203 0.0 1.6 0.00 0.00 0.00 53 1008.6
20260506225735 16 165 0.0 3.2 0.00 0.00 0.00 53 1008.5
20260506225235 16 196 0.0 1.6 0.00 0.00 0.00 53 1008.5
20260506224734 16 192 0.0 1.6 0.00 0.00 0.00 53 1008.5
20260506224234 16 220 0.0 3.2 0.00 0.00 0.00 52 1008.5
20260506223734 16 217 0.0 1.6 0.00 0.00 0.00 52 1008.5
20260506223234 16 140 0.0 4.8 0.00 0.00 0.00 52 1008.5
20260506222733 16 246 1.6 8.0 0.00 0.00 0.00 52 1008.5
20260506222233 16 196 0.0 3.2 0.00 0.00 0.00 52 1008.4
20260506221733 16 201 0.0 6.4 0.00 0.00 0.00 53 1008.3
20260506221232 16 174 0.0 8.0 0.00 0.00 0.00 54 1008.4
20260506220732 16 240 1.6 4.8 0.00 0.00 0.00 55 1008.4
20260506220232 16 201 1.6 11.3 0.00 0.00 0.00 55 1008.4
20260506215732 16 216 6.4 6.4 0.00 0.00 0.00 56 1008.4
20260506215231 16 170 0.0 1.6 0.00 0.00 0.00 55 1008.4
20260506214731 16 156 0.0 3.2 0.00 0.00 0.00 54 1008.4
20260506214231 16 119 0.0 0.0 0.00 0.00 0.00 54 1008.4
20260506213730 16 119 0.0 0.0 0.00 0.00 0.00 55 1008.3
20260506213230 16 119 0.0 0.0 0.00 0.00 0.00 55 1008.3
20260506212730 16 119 0.0 0.0 0.00 0.00 0.00 55 1008.3
20260506212230 16 119 0.0 1.6 0.00 0.00 0.00 54 1008.3
20260506211729 16 92 0.0 0.0 0.00 0.00 0.00 53 1008.3
20260506211229 16 92 0.0 1.6 0.00 0.00 0.00 52 1008.3
20260506210729 16 120 0.0 1.6 0.00 0.00 0.00 52 1008.2
20260506210228 16 170 1.6 4.8 0.00 0.00 0.00 51 1008.2
20260506205728 16 112 0.0 3.2 0.00 0.00 0.00 51 1008.2
20260506205228 17 109 0.0 1.6 0.00 0.00 0.00 50 1008.2
20260506204728 17 215 0.0 0.0 0.00 0.00 0.00 50 1008.1
20260506204227 17 215 0.0 3.2 0.00 0.00 0.00 49 1008.1
20260506203727 17 226 0.0 1.6 0.00 0.00 0.00 49 1008.1
20260506203227 17 111 0.0 4.8 0.00 0.00 0.00 49 1008.0
20260506202726 17 195 0.0 3.2 0.00 0.00 0.00 49 1008.0
20260506202226 17 212 0.0 3.2 0.00 0.00 0.00 48 1008.0
20260506201726 17 172 0.0 1.6 0.00 0.00 0.00 48 1008.0
20260506201226 17 187 0.0 1.6 0.00 0.00 0.00 47 1007.9
20260506200725 17 139 0.0 1.6 0.00 0.00 0.00 47 1007.9
20260506200225 17 150 0.0 4.8 0.00 0.00 0.00 47 1007.9
20260506195725 18 127 0.0 0.0 0.00 0.00 0.00 46 1007.9
20260506195225 18 127 0.0 1.6 0.00 0.00 0.00 46 1007.9
20260506194724 18 170 0.0 8.0 0.00 0.00 0.00 46 1007.9
20260506194224 18 205 0.0 8.0 0.00 0.00 0.00 47 1007.9
20260506193724 18 137 0.0 4.8 0.00 0.00 0.00 46 1007.8
20260506193223 18 210 0.0 6.4 0.00 0.00 0.00 46 1007.9
20260506192723 18 172 1.6 4.8 0.00 0.00 0.00 46 1007.9
20260506192223 18 163 0.0 4.8 0.00 0.00 0.00 45 1007.8
20260506191723 18 147 1.6 9.7 0.00 0.00 0.00 45 1007.9
20260506191222 18 220 0.0 8.0 0.00 0.00 0.00 45 1007.8
20260506190722 18 154 1.6 9.7 0.00 0.00 0.00 45 1007.8
20260506190222 18 196 1.6 6.4 0.00 0.00 0.00 44 1007.8
20260506185721 18 205 0.0 11.3 0.00 0.00 0.00 44 1007.8
20260506185221 18 216 1.6 4.8 0.00 0.00 0.00 44 1007.8
20260506184721 19 123 0.0 9.7 0.00 0.00 0.00 43 1007.7
20260506184221 19 189 0.0 8.0 0.00 0.00 0.00 43 1007.6
20260506183720 19 216 6.4 9.7 0.00 0.00 0.00 43 1007.6
20260506183220 19 188 3.2 14.5 0.00 0.00 0.00 43 1007.4
20260506182720 19 210 1.6 11.3 0.00 0.00 0.00 42 1007.4
20260506182219 20 130 0.0 8.0 0.00 0.00 0.00 42 1007.4
20260506181719 20 201 6.4 11.3 0.00 0.00 0.00 41 1007.3
20260506181219 20 199 3.2 12.9 0.00 0.00 0.00 41 1007.3
20260506180719 20 171 0.0 9.7 0.00 0.00 0.00 41 1007.3
20260506180218 20 292 1.6 12.9 0.00 0.00 0.00 40 1007.2
20260506175718 20 194 1.6 6.4 0.00 0.00 0.00 40 1007.1
20260506175218 20 184 1.6 12.9 0.00 0.00 0.00 39 1007.1
20260506174717 20 149 0.0 9.7 0.00 0.00 0.00 39 1007.1
20260506174217 20 188 8.0 11.3 0.00 0.00 0.00 39 1007.0
20260506173717 21 222 4.8 11.3 0.00 0.00 0.00 38 1007.0
20260506173217 21 165 0.0 6.4 0.00 0.00 0.00 38 1007.0
20260506172716 21 227 3.2 9.7 0.00 0.00 0.00 37 1007.0
20260506172216 21 187 0.0 11.3 0.00 0.00 0.00 36 1006.9
20260506171716 21 247 3.2 11.3 0.00 0.00 0.00 36 1006.9
20260506171215 21 188 0.0 12.9 0.00 0.00 0.00 36 1006.9
20260506170715 21 220 1.6 14.5 0.00 0.00 0.00 35 1006.9
20260506170215 21 226 3.2 17.7 0.00 0.00 0.00 34 1006.9
20260506165715 21 198 6.4 14.5 0.00 0.00 0.00 35 1007.0
20260506165214 21 232 8.0 19.3 0.00 0.00 0.00 35 1007.0
20260506164714 21 178 4.8 17.7 0.00 0.00 0.00 35 1007.0
20260506164214 21 225 8.0 16.1 0.00 0.00 0.00 35 1006.9
20260506163713 21 189 4.8 20.9 0.00 0.00 0.00 34 1006.9
20260506163213 22 212 6.4 17.7 0.00 0.00 0.00 34 1006.8
20260506162713 22 243 8.0 24.1 0.00 0.00 0.00 33 1006.8
20260506162213 22 223 3.2 24.1 0.00 0.00 0.00 33 1006.8
20260506161712 22 232 20.9 20.9 0.00 0.00 0.00 32 1006.8
20260506161212 22 208 19.3 19.3 0.00 0.00 0.00 32 1006.8
20260506160712 22 216 12.9 22.5 0.00 0.00 0.00 31 1006.8
20260506160211 22 232 4.8 24.1 0.00 0.00 0.00 31 1006.9
20260506155711 22 230 12.9 19.3 0.00 0.00 0.00 31 1007.0
20260506155211 22 161 3.2 20.9 0.00 0.00 0.00 32 1007.0
20260506154711 22 203 6.4 19.3 0.00 0.00 0.00 31 1007.0
20260506154210 22 219 3.2 24.1 0.00 0.00 0.00 29 1007.1
20260506153710 23 229 4.8 20.9 0.00 0.00 0.00 29 1007.0
20260506153210 23 264 8.0 30.6 0.00 0.00 0.00 29 1007.1
20260506152710 23 208 3.2 22.5 0.00 0.00 0.00 28 1007.1
20260506152209 23 208 9.7 30.6 0.00 0.00 0.00 27 1007.0
20260506151709 23 223 8.0 20.9 0.00 0.00 0.00 27 1007.0
20260506151209 23 216 3.2 22.5 0.00 0.00 0.00 27 1007.0
20260506150708 23 174 6.4 29.0 0.00 0.00 0.00 27 1007.1
20260506150208 23 220 8.0 24.1 0.00 0.00 0.00 27 1007.1
20260506145708 23 188 14.5 27.4 0.00 0.00 0.00 26 1007.1
20260506145208 23 244 14.5 19.3 0.00 0.00 0.00 28 1007.1
20260506144707 23 358 4.8 27.4 0.00 0.00 0.00 29 1007.1
20260506144207 23 216 14.5 29.0 0.00 0.00 0.00 29 1007.1
20260506143707 23 227 16.1 33.8 0.00 0.00 0.00 28 1007.2
20260506143206 23 232 6.4 25.7 0.00 0.00 0.00 29 1007.1
20260506142706 23 216 6.4 27.4 0.00 0.00 0.00 29 1007.1
20260506142206 23 167 12.9 22.5 0.00 0.00 0.00 29 1007.1
20260506141706 23 232 1.6 27.4 0.00 0.00 0.00 30 1007.1
20260506141205 23 213 6.4 19.3 0.00 0.00 0.00 29 1007.2
20260506140705 23 188 14.5 30.6 0.00 0.00 0.00 29 1007.3
20260506140205 23 219 11.3 19.3 0.00 0.00 0.00 31 1007.3
20260506135704 23 108 9.7 24.1 0.00 0.00 0.00 29 1007.2
20260506135204 23 222 9.7 25.7 0.00 0.00 0.00 29 1007.3
20260506134704 23 232 8.0 20.9 0.00 0.00 0.00 29 1007.3
20260506134204 23 157 14.5 25.7 0.00 0.00 0.00 28 1007.4
20260506133703 23 213 16.1 22.5 0.00 0.00 0.00 27 1007.4
20260506133203 23 237 11.3 24.1 0.00 0.00 0.00 29 1007.4
20260506132703 23 202 12.9 35.4 0.00 0.00 0.00 29 1007.4
20260506132202 23 220 16.1 20.9 0.00 0.00 0.00 29 1007.4
20260506131703 23 253 8.0 20.9 0.00 0.00 0.00 28 1007.4
20260506131202 23 187 12.9 29.0 0.00 0.00 0.00 29 1007.6
20260506130702 23 194 8.0 27.4 0.00 0.00 0.00 29 1007.6
20260506130201 23 185 14.5 25.7 0.00 0.00 0.00 29 1007.6
20260506125701 23 225 17.7 30.6 0.00 0.00 0.00 28 1007.7
20260506125201 23 185 9.7 25.7 0.00 0.00 0.00 28 1007.6
20260506124700 23 198 6.4 29.0 0.00 0.00 0.00 28 1007.7
20260506124200 23 196 24.1 25.7 0.00 0.00 0.00 29 1007.8
20260506123700 23 206 8.0 25.7 0.00 0.00 0.00 29 1007.8
20260506123200 23 143 6.4 29.0 0.00 0.00 0.00 30 1007.9
20260506122659 23 229 14.5 25.7 0.00 0.00 0.00 29 1008.0
20260506122159 23 261 8.0 37.0 0.00 0.00 0.00 29 1008.1
20260506121659 23 222 16.1 30.6 0.00 0.00 0.00 31 1008.0
20260506121158 23 219 14.5 30.6 0.00 0.00 0.00 30 1008.1
20260506120658 23 270 9.7 22.5 0.00 0.00 0.00 31 1008.1
20260506120158 23 222 9.7 37.0 0.00 0.00 0.00 30 1008.2
20260506115658 23 229 24.1 40.2 0.00 0.00 0.00 29 1008.3
20260506115157 23 261 14.5 30.6 0.00 0.00 0.00 28 1008.4
20260506114657 23 209 14.5 30.6 0.00 0.00 0.00 31 1008.4
20260506114157 23 157 16.1 24.1 0.00 0.00 0.00 30 1008.5
20260506113656 23 254 8.0 19.3 0.00 0.00 0.00 31 1008.4
20260506113156 23 258 6.4 27.4 0.00 0.00 0.00 31 1008.4
20260506112656 23 153 8.0 33.8 0.00 0.00 0.00 30 1008.6
20260506112156 23 182 17.7 27.4 0.00 0.00 0.00 32 1008.4
20260506111655 23 178 8.0 30.6 0.00 0.00 0.00 31 1008.6
20260506111155 23 220 14.5 24.1 0.00 0.00 0.00 31 1008.5
20260506110655 22 217 12.9 33.8 0.00 0.00 0.00 31 1008.7
20260506110155 22 199 11.3 33.8 0.00 0.00 0.00 31 1008.6
20260506105654 22 209 29.0 32.2 0.00 0.00 0.00 31 1008.6
20260506105154 22 236 19.3 45.1 0.00 0.00 0.00 32 1008.7
20260506104654 22 216 17.7 35.4 0.00 0.00 0.00 31 1008.7
20260506104153 22 219 11.3 38.6 0.00 0.00 0.00 31 1008.7
20260506103653 22 198 22.5 43.5 0.00 0.00 0.00 30 1008.7
20260506103153 22 220 8.0 43.5 0.00 0.00 0.00 31 1008.7
20260506102653 22 206 20.9 38.6 0.00 0.00 0.00 31 1008.7
20260506102152 22 255 9.7 33.8 0.00 0.00 0.00 30 1008.6
20260506101652 22 225 9.7 30.6 0.00 0.00 0.00 31 1008.7
20260506101152 22 215 12.9 29.0 0.00 0.00 0.00 31 1008.7
20260506100651 22 187 20.9 32.2 0.00 0.00 0.00 30 1008.7
20260506100151 22 225 11.3 41.8 0.00 0.00 0.00 30 1008.8
20260506095651 22 209 22.5 29.0 0.00 0.00 0.00 29 1008.7
20260506095151 22 196 19.3 32.2 0.00 0.00 0.00 29 1008.7
20260506094650 22 272 8.0 40.2 0.00 0.00 0.00 29 1008.7
20260506094150 22 139 12.9 29.0 0.00 0.00 0.00 29 1008.7
20260506093650 22 230 29.0 35.4 0.00 0.00 0.00 29 1008.8
20260506093149 22 191 22.5 38.6 0.00 0.00 0.00 31 1008.8
20260506092649 22 212 8.0 40.2 0.00 0.00 0.00 31 1008.8
20260506092149 22 180 9.7 24.1 0.00 0.00 0.00 33 1008.8
20260506091649 22 246 3.2 32.2 0.00 0.00 0.00 32 1008.8
20260506091148 21 175 11.3 29.0 0.00 0.00 0.00 33 1008.8
20260506090648 21 223 14.5 30.6 0.00 0.00 0.00 32 1008.9
20260506090148 22 136 27.4 32.2 0.00 0.00 0.00 32 1008.9
20260506085647 21 175 17.7 24.1 0.00 0.00 0.00 33 1008.7
20260506085147 21 209 17.7 32.2 0.00 0.00 0.00 32 1008.8
20260506084647 21 165 14.5 37.0 0.00 0.00 0.00 32 1008.7
20260506084147 21 192 9.7 35.4 0.00 0.00 0.00 32 1008.7
20260506083646 21 236 14.5 30.6 0.00 0.00 0.00 32 1008.7
20260506083146 21 181 9.7 25.7 0.00 0.00 0.00 34 1008.6
20260506082646 21 210 17.7 30.6 0.00 0.00 0.00 32 1008.7
20260506082146 21 229 16.1 41.8 0.00 0.00 0.00 32 1008.6
20260506081645 21 156 9.7 32.2 0.00 0.00 0.00 33 1008.6
20260506081145 21 215 12.9 30.6 0.00 0.00 0.00 34 1008.6
20260506080645 21 172 14.5 35.4 0.00 0.00 0.00 33 1008.6
20260506080144 21 254 8.0 38.6 0.00 0.00 0.00 35 1008.6
20260506073143 20 172 14.5 35.4 0.00 0.00 0.00 34 1008.6
20260506072642 20 260 9.7 38.6 0.00 0.00 0.00 35 1008.6
20260506072142 20 196 4.8 30.6 0.00 0.00 0.00 36 1008.5
20260506071642 20 217 8.0 29.0 0.00 0.00 0.00 37 1008.5
20260506071142 20 217 22.5 30.6 0.00 0.00 0.00 36 1008.5
20260506070641 20 206 14.5 32.2 0.00 0.00 0.00 38 1008.4
20260506070141 20 181 4.8 30.6 0.00 0.00 0.00 38 1008.4
20260506062139 18 142 0.0 19.3 0.00 0.00 0.00 41 1008.5
20260506061638 18 198 3.2 14.5 0.00 0.00 0.00 41 1008.5
20260506061138 18 165 1.6 20.9 0.00 0.00 0.00 41 1008.5
20260506060638 18 149 4.8 12.9 0.00 0.00 0.00 41 1008.6
20260506060138 18 189 8.0 16.1 0.00 0.00 0.00 41 1008.7
20260506051135 18 289 9.7 19.3 0.00 0.00 0.00 40 1008.9
20260506050634 18 210 8.0 22.5 0.00 0.00 0.00 39 1008.8
20260506050134 18 205 11.3 22.5 0.00 0.00 0.00 39 1008.8
20260506045134 18 227 9.7 20.9 0.00 0.00 0.00 39 1008.7
20260506044633 18 240 11.3 12.9 0.00 0.00 0.00 40 1008.8
20260506044133 17 227 12.9 17.7 0.00 0.00 0.00 40 1008.7
20260506043633 17 223 1.6 16.1 0.00 0.00 0.00 42 1008.7
20260506043132 16 226 9.7 17.7 0.00 0.00 0.00 45 1008.6
20260506042632 15 143 0.0 3.2 0.00 0.00 0.00 48 1008.6
20260506042132 15 156 0.0 0.0 0.00 0.00 0.00 50 1008.6
20260506041632 14 156 0.0 0.0 0.00 0.00 0.00 50 1008.6
20260506041131 15 156 0.0 0.0 0.00 0.00 0.00 51 1008.6
20260506040631 15 156 0.0 0.0 0.00 0.00 0.00 48 1008.6
20260506040131 15 156 0.0 0.0 0.00 0.00 0.00 47 1008.7
20260506035631 15 156 0.0 0.0 0.00 0.00 0.00 46 1008.7
20260506035130 15 156 0.0 0.0 0.00 0.00 0.00 46 1008.7
20260506034630 15 156 0.0 0.0 0.00 0.00 0.00 45 1008.7
20260506034130 15 156 0.0 1.6 0.00 0.00 0.00 46 1008.7
20260506033629 15 209 0.0 4.8 0.00 0.00 0.00 46 1008.8
20260506033129 15 189 0.0 4.8 0.00 0.00 0.00 46 1008.7
20260506032629 14 98 0.0 1.6 0.00 0.00 0.00 46 1008.7
20260506032129 14 206 1.6 9.7 0.00 0.00 0.00 46 1008.7
20260506031628 14 189 4.8 4.8 0.00 0.00 0.00 46 1008.7
20260506031128 14 115 0.0 1.6 0.00 0.00 0.00 47 1008.7
20260506030628 13 115 1.6 3.2 0.00 0.00 0.00 49 1008.7
20260506030127 13 113 0.0 4.8 0.00 0.00 0.00 50 1008.6
20260506025627 12 106 0.0 8.0 0.00 0.00 0.00 54 1008.7
20260506025127 11 132 0.0 6.4 0.00 0.00 0.00 58 1008.8
20260506024627 10 161 0.0 0.0 0.00 0.00 0.00 63 1008.8
20260506024126 10 161 0.0 0.0 0.00 0.00 0.00 66 1008.8
20260506023626 9 161 0.0 3.2 0.00 0.00 0.00 67 1008.9
20260506023126 9 127 0.0 0.0 0.00 0.00 0.00 67 1008.9
20260506022625 9 127 0.0 0.0 0.00 0.00 0.00 66 1008.9
20260506022125 10 127 0.0 0.0 0.00 0.00 0.00 66 1008.9
20260506021625 10 127 0.0 0.0 0.00 0.00 0.00 66 1008.9
20260506021125 10 127 0.0 0.0 0.00 0.00 0.00 65 1008.8
20260506020624 10 127 0.0 0.0 0.00 0.00 0.00 64 1008.8
20260506020124 10 127 0.0 0.0 0.00 0.00 0.00 63 1008.8